Date,TemperatureHighF,TemperatureAvgF,TemperatureLowF,DewpointHighF,DewpointAvgF,DewpointLowF,HumidityHigh,HumidityAvg,HumidityLow,PressureMaxIn,PressureMinIn,WindSpeedMaxMPH,WindSpeedAvgMPH,GustSpeedMaxMPH,PrecipitationSumIn
2012-1-1,67.5,45.3,31.6,42.3,36.7,29.8,94,75,39,30.20,30.06,4,1,10,0.00
2012-1-2,61.3,47.8,36.8,49.4,43.1,34.4,93,84,63,30.30,30.11,5,2,9,0.00
2012-1-3,67.4,50.7,41.1,47.9,43.2,39.2,96,78,41,30.35,30.22,5,2,6,0.00
2012-1-4,74.4,52.3,37.7,43.8,40.2,35.3,93,68,28,30.36,30.22,4,2,6,0.00
2012-1-5,70.9,50.7,38.1,46.6,36.7,27.7,93,65,23,30.31,30.12,11,2,17,0.00
2012-1-6,64.0,46.7,32.5,43.3,37.3,29.9,92,72,41,30.18,30.05,7,2,16,0.00
2012-1-7,71.3,54.1,36.9,39.1,28.3,6.2,91,48,8,30.23,30.10,14,5,23,0.00
2012-1-8,67.0,51.8,38.0,32.5,27.1,14.7,77,42,17,30.21,30.11,7,2,17,0.00
2012-1-9,67.8,45.8,30.9,37.4,32.5,27.8,90,65,27,30.23,30.11,5,1,7,0.00
2012-1-10,66.6,45.6,32.5,39.5,34.6,30.2,91,69,33,30.15,30.04,5,2,8,0.00
2012-1-11,70.2,46.0,31.0,37.4,32.7,28.2,92,66,22,30.11,29.98,6,2,8,0.00
2012-1-12,70.6,45.8,30.2,38.1,32.2,27.6,92,65,23,30.10,29.99,5,2,7,0.00
2012-1-13,68.9,46.0,30.8,35.2,31.6,27.1,87,62,28,30.18,30.09,4,2,8,0.00
2012-1-14,68.2,47.2,29.4,35.0,30.4,26.5,91,59,22,30.15,30.03,5,2,8,0.00
2012-1-15,56.6,43.9,32.9,41.5,31.7,23.8,95,66,33,30.12,29.93,18,6,27,0.00
2012-1-16,54.5,41.5,30.3,25.8,20.5,11.7,71,47,19,30.28,30.11,13,5,23,0.00
2012-1-17,55.0,39.0,24.4,34.1,28.2,20.7,88,67,40,30.38,30.27,8,2,12,0.00
2012-1-18,54.2,42.9,31.4,43.2,35.7,28.3,90,77,56,30.38,30.25,7,2,11,0.00
2012-1-19,49.4,48.8,48.1,47.7,47.1,46.5,94,94,93,30.07,29.96,13,3,14,0.86
2012-1-20,56.6,52.5,49.0,55.0,51.1,47.6,95,95,94,29.97,29.61,14,4,23,2.76
2012-1-21,55.5,49.5,39.7,53.0,42.1,35.3,94,77,49,30.09,29.60,19,5,27,0.15
2012-1-22,51.7,45.3,39.8,50.0,43.2,37.1,95,92,88,30.13,29.70,17,3,18,2.43
2012-1-23,61.1,51.6,41.0,53.0,46.1,39.1,95,83,52,30.09,29.55,11,3,19,1.47
2012-1-24,60.3,49.6,39.3,48.5,43.9,37.7,95,82,60,30.35,30.10,6,2,8,0.00
2012-1-25,68.0,56.5,48.6,54.3,49.9,44.9,91,79,58,30.38,30.24,6,2,10,0.00
2012-1-26,68.5,56.3,47.4,56.8,51.6,45.8,94,86,56,30.27,30.14,10,2,17,0.00
2012-1-27,73.0,53.8,39.7,48.8,39.1,29.3,94,65,20,30.22,30.12,9,3,13,0.01
2012-1-28,64.8,46.6,32.4,38.2,33.0,27.0,94,65,25,30.29,30.17,7,2,11,0.00
2012-1-29,67.6,48.9,34.5,42.9,37.2,31.6,90,68,29,30.23,30.05,7,2,8,0.00
2012-1-30,61.5,52.0,40.6,47.8,43.0,36.6,93,73,52,30.05,29.94,6,2,10,0.00
2012-1-31,56.0,48.3,39.2,47.8,44.2,37.9,96,86,70,30.12,30.01,8,3,13,0.00
2012-2-1,63.7,53.1,45.9,50.8,45.0,42.2,95,76,48,30.21,30.11,8,2,15,0.04
2012-2-2,79.5,55.9,41.7,45.4,39.1,16.5,93,63,13,30.19,29.89,7,2,11,0.00
2012-2-3,65.3,48.3,34.4,42.2,36.9,31.8,94,69,29,30.01,29.92,9,2,13,0.00
2012-2-4,67.6,49.0,34.7,40.6,35.8,31.4,91,65,27,30.05,29.99,8,2,13,0.00
2012-2-5,68.7,49.5,38.0,42.4,37.4,33.4,85,66,34,30.07,29.92,5,2,8,0.00
2012-2-6,68.6,51.0,38.0,44.5,37.4,29.4,89,64,24,29.93,29.70,13,2,20,0.04
2012-2-7,53.8,51.1,48.9,50.5,48.6,45.0,94,91,82,30.06,29.74,9,2,15,0.86
2012-2-8,70.3,52.3,43.1,53.8,46.3,42.0,96,82,45,30.20,30.04,5,2,11,0.00
2012-2-9,70.8,54.5,42.6,50.8,45.1,41.0,94,74,44,30.22,30.07,8,3,11,0.00
2012-2-10,58.5,51.2,43.7,54.3,48.3,41.2,93,90,80,30.14,30.00,8,2,11,0.05
2012-2-11,64.8,54.1,43.2,51.6,47.6,40.9,95,80,53,30.01,29.90,12,3,16,0.00
2012-2-12,59.0,47.0,37.7,49.6,41.6,36.4,96,83,61,30.03,29.90,9,3,14,0.21
2012-2-13,57.8,48.1,41.6,45.6,40.7,38.3,95,77,51,29.96,29.85,18,4,25,0.01
2012-2-14,64.6,50.5,39.4,39.8,35.5,27.4,88,60,27,30.06,29.96,12,4,22,0.00
2012-2-15,65.2,50.8,37.6,39.4,28.3,13.0,83,47,13,30.14,29.99,14,5,20,0.00
2012-2-16,72.2,52.9,41.0,41.9,32.0,24.4,82,49,18,30.22,30.11,9,3,17,0.00
2012-2-17,67.6,50.7,38.7,50.5,42.5,35.5,91,76,48,30.22,30.08,9,2,14,0.00
2012-2-18,61.8,49.5,42.1,47.5,38.2,31.6,95,69,33,30.15,30.04,18,5,27,0.00
2012-2-19,60.1,47.9,42.1,39.4,32.2,25.5,80,57,28,30.11,29.98,12,4,16,0.00
2012-2-20,62.1,51.2,44.8,47.7,43.8,39.2,92,77,56,30.16,30.05,6,2,10,0.00
2012-2-21,73.0,54.4,41.6,53.3,46.7,40.0,95,78,46,30.26,30.15,6,2,10,0.00
2012-2-22,79.4,63.8,50.6,49.7,43.4,29.9,89,54,17,30.23,30.03,17,6,27,0.00
2012-2-23,80.0,63.8,51.8,44.3,37.4,29.7,64,41,16,30.05,29.92,17,6,30,0.00
2012-2-24,76.6,60.2,44.5,42.2,36.2,27.4,73,45,17,30.11,29.94,21,6,32,0.00
2012-2-25,60.5,51.3,43.5,39.7,30.7,23.7,68,48,25,30.29,30.11,21,9,33,0.00
2012-2-26,59.9,45.1,34.9,31.9,28.8,23.1,76,56,27,30.15,29.80,12,3,18,0.00
2012-2-27,59.1,44.3,30.1,33.6,30.0,26.9,89,60,30,29.92,29.75,10,3,19,0.00
2012-2-28,55.0,44.3,33.7,46.9,35.4,29.5,93,73,42,30.15,29.93,17,6,29,0.31
2012-2-29,53.6,47.6,39.7,48.4,42.0,36.1,94,82,61,30.18,29.95,23,5,32,0.48
2012-3-1,58.2,48.7,40.5,48.9,40.4,31.9,93,75,39,30.22,30.12,20,5,25,0.14
2012-3-2,72.1,51.0,39.4,36.5,31.7,16.3,82,55,16,30.32,30.22,10,4,17,0.00
2012-3-3,72.3,52.5,35.9,42.4,37.5,32.6,89,61,29,30.37,30.19,9,2,13,0.00
2012-3-4,76.3,56.6,38.7,45.8,41.9,35.4,90,62,29,30.23,30.02,8,2,13,0.00
2012-3-5,68.0,51.9,37.4,47.0,41.7,35.1,93,71,41,30.06,29.94,14,4,19,0.00
2012-3-6,58.3,49.6,39.9,44.3,28.3,18.2,88,48,22,30.07,29.89,30,9,36,0.00
2012-3-7,73.2,52.4,35.6,30.1,22.7,5.7,68,40,8,30.15,30.06,14,4,20,0.00
2012-3-8,72.2,54.2,34.2,36.0,30.7,25.5,83,46,18,30.28,30.14,12,3,12,0.00
2012-3-9,73.8,53.5,35.4,38.0,32.0,24.5,84,50,16,30.31,30.10,12,3,21,0.00
2012-3-10,41.1,39.1,37.3,33.6,33.0,32.5,83,79,73,30.10,30.06,3,1,5,0.00
2012-3-12,57.9,54.2,49.8,46.7,40.7,37.3,89,61,48,29.99,29.85,12,7,21,0.07
2012-3-13,53.8,52.4,49.8,51.8,50.3,46.7,94,93,89,29.88,29.77,15,7,28,2.55
2012-3-14,59.1,54.6,52.8,55.1,52.4,51.1,95,92,82,30.03,29.88,10,4,16,0.50
2012-3-15,60.8,55.8,53.7,56.1,52.5,51.3,95,89,74,30.07,29.97,11,4,15,0.10
2012-3-16,55.5,52.7,45.8,53.8,50.8,42.8,95,93,86,29.97,29.67,14,4,24,1.34
2012-3-17,59.0,46.3,37.7,46.5,36.2,27.6,97,73,32,29.69,29.49,24,6,28,0.01
2012-3-18,54.7,46.7,40.7,34.7,30.8,22.9,76,56,30,29.93,29.62,20,7,31,0.00
2012-3-19,56.3,47.0,36.3,33.2,30.9,26.5,82,56,33,30.07,29.93,10,3,14,0.00
2012-3-20,61.9,54.2,47.2,47.6,41.0,32.6,79,61,53,30.19,30.07,5,2,8,0.00
2012-3-21,68.5,58.6,51.9,52.3,49.1,46.2,87,72,47,30.14,29.91,10,3,16,0.00
2012-3-22,64.2,53.1,43.1,50.7,37.9,22.9,93,62,23,29.96,29.85,16,5,23,0.05
2012-3-23,58.7,47.7,36.1,39.7,34.6,31.7,89,63,37,30.08,29.83,14,4,20,0.00
2012-3-24,52.9,45.9,40.7,45.1,40.2,30.8,93,83,43,29.89,29.77,12,3,22,0.91
2012-3-25,60.0,47.8,41.7,45.6,40.3,36.3,95,78,44,29.84,29.74,9,2,17,0.18
2012-3-26,56.2,49.0,34.3,43.4,39.2,32.8,94,70,52,30.05,29.85,23,6,23,0.18
2012-3-27,53.6,51.2,48.0,51.9,48.2,40.6,94,90,67,29.97,29.77,26,8,29,2.02
2012-3-28,65.6,55.6,47.0,51.8,45.5,38.7,94,72,40,30.05,29.83,18,4,20,0.10
2012-3-29,57.2,52.3,45.4,51.7,48.0,42.3,92,85,75,30.09,29.99,11,3,13,0.02
2012-3-30,59.7,56.1,53.8,55.0,53.0,51.5,94,90,82,30.03,29.81,13,4,14,0.02
2012-3-31,57.6,52.7,46.5,52.9,46.6,39.6,91,81,54,29.95,29.63,27,8,31,0.50
2012-4-1,62.8,52.5,42.0,43.7,36.4,30.2,89,57,31,30.23,29.95,23,6,24,0.00
2012-4-2,67.3,54.7,42.8,44.7,39.2,33.5,83,59,30,30.23,29.98,13,4,15,0.00
2012-4-3,67.1,52.3,41.8,50.6,44.0,38.7,92,76,45,30.06,29.92,20,4,23,0.00
2012-4-4,62.7,50.3,37.7,41.2,33.5,24.7,92,57,26,30.16,30.03,25,6,25,0.00
2012-4-5,61.2,48.4,35.8,34.1,29.4,19.2,85,53,21,30.14,30.01,23,7,25,0.00
2012-4-6,63.8,48.5,33.2,37.4,30.1,19.6,90,55,22,30.25,30.11,14,3,16,0.00
2012-4-7,41.1,38.2,36.3,32.7,31.2,29.8,82,76,66,30.14,30.10,6,2,7,0.00
2012-4-8,68.1,58.3,48.1,41.6,37.1,27.1,67,47,27,30.03,29.95,11,4,17,0.00
2012-4-9,73.1,54.9,42.5,44.6,37.4,11.3,86,60,10,29.97,29.76,20,3,21,0.00
2012-4-10,56.2,53.1,50.0,52.5,49.8,43.0,93,89,73,29.83,29.75,9,4,14,0.71
2012-4-11,59.7,54.5,47.4,52.8,45.4,41.0,95,73,53,29.89,29.75,28,8,28,0.01
2012-4-12,60.0,51.0,45.7,49.4,44.0,35.0,94,79,40,29.95,29.71,25,6,32,0.97
2012-4-13,59.9,50.5,43.1,46.6,40.6,33.6,94,71,41,29.83,29.67,26,5,29,0.38
2012-4-14,71.8,55.5,44.3,46.7,39.7,35.0,85,58,28,30.07,29.83,24,5,24,0.00
2012-4-15,67.5,54.3,43.2,51.0,46.0,40.7,94,75,52,30.17,30.06,18,4,18,0.00
2012-4-16,70.0,55.6,43.0,48.3,44.2,35.7,92,69,33,30.20,30.10,17,4,18,0.00
2012-4-17,68.8,55.6,44.6,52.9,47.7,42.2,93,76,53,30.15,30.00,15,4,16,0.00
2012-4-18,77.1,57.6,47.4,51.0,47.4,44.8,92,72,35,30.11,30.02,12,2,17,0.00
2012-4-19,86.5,68.4,51.2,59.2,54.5,48.4,90,64,35,30.13,29.98,12,4,17,0.00
2012-4-20,89.6,73.4,60.9,57.9,54.2,46.3,82,55,23,30.00,29.88,11,4,15,0.00
2012-4-21,90.5,71.7,53.9,56.5,51.9,48.8,84,54,27,29.93,29.79,11,3,14,0.00
2012-4-22,79.2,62.8,53.5,55.0,51.8,49.6,88,70,39,29.89,29.80,13,4,20,0.00
2012-4-23,61.9,56.8,53.8,53.7,51.5,49.7,92,83,67,29.96,29.88,11,3,14,0.03
2012-4-24,69.1,60.5,56.0,57.9,54.1,50.4,94,81,61,30.01,29.91,8,3,16,0.10
2012-4-25,70.9,61.8,56.6,55.4,53.1,50.4,90,74,51,29.96,29.71,9,3,14,0.01
2012-4-26,65.2,58.1,50.8,54.2,44.5,34.3,92,64,33,30.15,29.71,19,6,29,0.01
2012-4-27,74.4,59.7,42.9,43.6,38.7,32.6,84,50,23,30.22,30.08,13,4,20,0.00
2012-4-28,84.9,68.1,50.0,51.8,45.5,38.8,76,47,27,30.10,29.83,14,4,19,0.00
2012-4-29,82.8,67.8,52.7,53.8,49.3,46.6,82,55,30,29.87,29.79,14,4,17,0.00
2012-4-30,86.0,65.9,49.8,51.1,47.0,41.1,88,56,28,29.92,29.82,17,4,26,0.00
2012-5-9,81.2,73.0,64.6,50.9,49.0,47.8,55,43,32,29.85,29.81,9,5,14,0.00
2012-5-10,84.7,71.0,50.0,47.3,43.3,34.5,80,41,17,29.89,29.80,15,4,16,0.00
2012-5-11,55.1,52.6,51.0,46.7,46.0,45.2,83,78,72,29.85,29.83,2,1,3,0.00
2012-5-13,65.7,59.6,55.8,49.2,47.9,46.4,74,65,55,30.06,29.99,14,6,18,0.00
2012-5-14,71.0,60.1,48.1,51.1,47.3,44.7,89,65,43,30.07,29.98,12,4,17,0.00
2012-5-15,72.5,57.6,49.4,52.2,48.3,46.0,93,74,45,30.02,29.92,15,4,19,0.00
2012-5-16,74.1,58.2,50.7,54.8,49.2,47.1,89,74,50,29.99,29.88,17,4,19,0.00
2012-5-17,82.7,62.7,50.6,51.5,45.4,36.9,90,60,20,29.91,29.73,20,5,33,0.00
2012-5-18,82.3,63.9,48.2,47.3,42.3,35.9,79,50,21,29.92,29.83,14,3,19,0.00
2012-5-19,83.2,63.8,44.2,48.7,43.7,38.8,87,54,21,29.93,29.85,11,3,16,0.00
2012-5-20,85.5,66.7,50.1,50.8,46.8,43.2,78,52,25,29.93,29.84,16,3,18,0.00
2012-5-21,77.5,63.8,50.4,55.2,50.6,47.0,90,65,40,30.02,29.92,14,4,21,0.00
2012-5-22,83.5,66.7,53.5,55.2,48.4,41.4,93,58,26,30.05,29.95,24,5,25,0.00
2012-5-23,77.5,64.9,55.2,48.0,42.7,37.2,74,48,26,29.99,29.84,23,7,35,0.00
2012-5-24,74.1,62.3,52.6,43.1,39.6,36.5,59,44,30,29.85,29.68,26,9,33,0.00
2012-5-25,72.8,59.3,49.8,45.5,38.8,34.4,69,49,27,29.77,29.66,17,6,32,0.00
2012-5-26,73.8,60.1,46.2,47.8,45.5,41.7,86,61,37,30.01,29.77,17,4,19,0.00
2012-5-27,73.1,59.3,47.8,50.2,46.0,43.3,86,64,36,30.09,30.00,17,4,19,0.00
2012-5-28,72.9,58.7,45.4,49.3,45.4,41.8,88,64,38,30.02,29.91,14,4,18,0.00
2012-5-29,77.7,61.0,43.7,49.9,45.6,40.4,89,61,32,30.02,29.93,12,4,17,0.00
2012-5-30,84.7,64.3,47.0,53.1,47.4,43.3,88,59,29,30.05,29.96,13,4,18,0.00
2012-5-31,91.8,67.5,48.2,54.0,48.7,44.2,88,56,22,30.01,29.81,13,3,20,0.00
2012-6-1,92.8,71.7,53.8,57.5,52.4,48.5,83,55,29,29.83,29.69,10,3,16,0.00
2012-6-2,90.5,71.0,55.7,57.0,48.6,30.9,83,52,13,29.86,29.76,18,4,28,0.00
2012-6-3,82.4,65.0,49.8,50.7,46.3,38.9,87,56,24,29.88,29.79,13,4,19,0.00
2012-6-4,67.0,59.9,52.5,54.7,48.1,40.1,89,66,47,30.04,29.81,27,6,30,0.01
2012-6-5,74.2,58.8,43.2,44.0,39.1,33.5,87,52,25,30.14,30.04,20,5,26,0.00
2012-6-6,82.5,65.3,49.8,44.2,39.7,32.1,70,43,17,30.07,29.86,12,4,20,0.00
2012-6-7,85.4,67.2,47.6,50.5,44.9,35.6,79,49,19,29.95,29.85,19,4,22,0.00
2012-6-8,79.0,64.8,53.0,47.8,41.1,32.3,75,46,20,29.93,29.83,31,6,35,0.00
2012-6-9,90.2,68.3,51.3,43.5,33.4,3.9,55,34,4,29.96,29.82,17,5,28,0.00
2012-6-10,98.5,77.4,59.2,44.0,33.9,2.8,47,26,3,29.83,29.78,12,3,19,0.00
2012-6-11,94.2,75.5,56.6,49.6,45.1,35.6,71,39,14,29.86,29.80,11,3,15,0.00
2012-6-12,92.0,73.9,55.6,51.9,48.1,45.3,73,44,22,29.88,29.79,26,6,32,0.00
2012-6-13,86.8,68.8,53.0,54.5,49.4,45.4,82,53,29,29.80,29.66,13,4,18,0.00
2012-6-14,91.3,70.3,50.1,51.8,43.2,29.6,83,45,17,29.74,29.65,21,5,32,0.00
2012-6-15,93.3,75.3,60.9,50.9,43.7,32.4,57,34,20,29.76,29.67,12,4,17,0.00
2012-6-16,105.7,79.7,56.2,56.4,50.3,45.3,78,42,14,29.79,29.68,14,3,15,0.00
2012-6-17,80.8,69.2,54.0,55.0,51.5,48.6,84,56,36,29.81,29.70,14,5,19,0.00
2012-6-18,74.5,60.4,52.1,52.0,48.9,45.8,90,69,42,29.84,29.72,13,5,20,0.00
2012-6-19,83.8,65.7,49.2,52.5,47.5,43.4,87,56,25,29.84,29.74,12,3,15,0.00
2012-6-20,93.4,70.7,52.7,52.9,46.6,34.0,82,50,13,29.78,29.72,13,4,16,0.00
2012-6-21,71.5,58.6,50.4,50.6,48.2,46.6,89,70,46,29.87,29.73,17,5,21,0.00
2012-6-22,64.9,56.5,49.0,52.7,49.5,45.5,89,78,62,29.91,29.80,13,4,17,0.00
2012-6-23,68.8,58.2,46.4,49.9,45.9,42.5,92,66,41,29.89,29.79,18,4,21,0.00
2012-6-24,74.3,58.4,44.2,47.0,43.5,40.8,89,61,34,29.99,29.88,14,3,17,0.00
2012-6-25,70.8,58.8,44.8,50.0,45.3,40.5,85,63,39,30.04,29.96,15,4,22,0.00
2012-6-26,80.1,63.9,45.6,48.2,44.6,40.7,89,55,26,30.02,29.82,13,3,18,0.00
2012-6-27,85.4,68.2,50.7,49.9,41.9,5.7,77,45,5,29.88,29.80,13,3,17,0.00
2012-6-28,83.8,65.3,49.5,51.6,48.3,44.9,85,59,28,30.00,29.87,13,4,18,0.00
2012-6-29,78.3,64.3,53.4,55.3,52.6,50.2,90,69,43,30.03,29.93,14,4,19,0.00
2012-6-30,81.9,67.3,55.9,59.9,56.1,51.4,88,70,45,29.96,29.85,13,5,18,0.00
2012-7-1,81.8,68.9,60.5,59.5,56.9,52.5,86,67,46,29.86,29.77,13,4,16,0.00
2012-7-2,84.4,67.7,54.6,58.2,52.9,49.2,88,63,36,29.81,29.73,14,4,18,0.00
2012-7-3,88.3,69.7,50.0,52.1,49.1,46.0,87,53,28,29.82,29.70,14,3,17,0.00
2012-7-4,81.0,66.8,52.6,53.2,49.4,47.2,84,57,34,29.78,29.72,12,4,17,0.00
2012-7-5,78.8,62.4,49.8,51.5,47.9,45.0,86,63,31,29.91,29.78,15,4,18,0.00
2012-7-6,86.5,65.0,47.0,52.3,47.9,43.9,90,59,27,29.95,29.86,12,3,16,0.00
2012-7-7,93.7,69.2,49.2,54.1,46.9,41.7,86,52,17,29.92,29.81,14,4,18,0.00
2012-7-8,85.0,63.3,49.2,51.2,48.3,45.2,92,64,27,29.95,29.88,14,4,17,0.00
2012-7-9,85.6,65.7,53.8,52.7,50.0,45.5,89,63,27,29.97,29.86,11,4,15,0.00
2012-7-10,96.1,70.0,49.1,53.3,48.5,44.1,87,54,18,29.89,29.69,12,3,15,0.00
2012-7-11,96.2,72.8,52.5,54.0,49.8,47.1,83,50,21,29.78,29.66,10,3,14,0.00
2012-7-12,92.0,69.4,52.6,55.6,50.4,47.3,83,55,24,29.75,29.65,15,4,17,0.00
2012-7-13,77.2,60.9,49.0,51.5,48.9,45.3,88,67,40,29.81,29.73,19,5,21,0.00
2012-7-14,79.3,62.6,54.5,54.2,51.0,49.3,85,68,41,29.87,29.76,13,4,17,0.00
2012-7-15,77.4,61.4,52.0,55.0,51.3,48.5,90,72,45,29.83,29.73,17,4,20,0.00
2012-7-16,68.8,57.9,52.0,51.8,50.1,48.3,92,77,51,29.81,29.74,13,4,20,0.00
2012-7-17,66.8,61.1,55.6,53.7,51.7,49.5,86,72,57,29.89,29.79,11,4,13,0.00
2012-7-18,74.8,60.9,49.3,53.7,50.1,45.9,90,70,43,29.95,29.84,13,4,21,0.00
2012-7-19,77.3,63.4,54.7,55.5,52.6,50.0,90,71,44,29.96,29.86,11,4,16,0.00
2012-7-20,92.6,70.6,52.1,57.2,51.6,46.6,93,58,22,30.00,29.83,10,3,15,0.00
2012-7-21,97.8,75.3,55.8,57.2,51.3,42.2,82,49,15,29.88,29.73,14,4,17,0.00
2012-7-22,92.6,70.9,52.5,55.2,50.7,47.8,86,54,23,29.81,29.69,12,4,17,0.00
2012-7-23,81.9,65.5,54.9,54.1,50.6,47.2,83,61,35,29.83,29.75,12,4,17,0.00
2012-7-24,76.8,63.4,55.9,53.4,51.2,49.7,84,67,41,29.90,29.80,14,4,17,0.00
2012-7-25,75.4,63.0,55.4,52.9,50.8,49.0,84,67,41,29.92,29.84,12,4,16,0.00
2012-7-26,72.4,59.7,53.5,51.8,50.4,49.4,88,73,47,29.93,29.85,13,4,17,0.00
2012-7-27,78.4,61.3,51.9,54.3,50.9,48.7,90,72,41,29.94,29.86,13,4,16,0.00
2012-7-28,86.8,66.6,54.5,54.1,51.8,50.8,89,64,30,29.96,29.84,11,4,16,0.00
2012-7-29,86.3,66.4,51.0,54.7,50.8,47.3,91,62,29,29.96,29.84,13,3,15,0.00
2012-7-30,95.7,71.0,51.5,55.4,50.7,47.6,87,55,21,29.90,29.75,12,3,16,0.00
2012-7-31,92.9,70.0,51.8,53.8,49.8,45.4,86,54,22,29.89,29.81,12,3,18,0.00
2012-8-1,84.8,67.1,50.0,54.9,49.7,46.4,89,58,27,29.97,29.86,12,3,17,0.00
2012-8-2,88.1,66.6,49.4,53.9,49.8,45.7,89,60,27,29.91,29.77,11,4,17,0.00
2012-8-3,81.0,61.6,53.1,54.2,51.1,49.1,89,72,38,29.82,29.70,12,4,16,0.00
2012-8-4,69.2,59.0,51.7,54.9,51.4,48.2,90,77,58,29.87,29.76,12,4,18,0.00
2012-8-5,75.0,63.8,58.4,57.2,55.3,53.2,88,75,53,29.98,29.86,13,4,18,0.00
2012-8-6,85.3,66.2,56.7,57.4,52.8,46.8,92,67,29,30.03,29.92,13,4,15,0.00
2012-8-7,90.5,68.5,49.6,54.0,48.8,43.7,91,56,20,29.97,29.85,12,3,16,0.00
2012-8-8,96.3,71.5,49.6,51.5,47.7,41.9,87,51,16,29.93,29.78,13,3,16,0.00
2012-8-9,98.2,72.6,50.7,53.1,48.8,40.7,85,50,15,29.86,29.69,15,3,16,0.00
2012-8-10,94.8,70.6,51.6,53.2,49.2,44.2,86,53,18,29.74,29.58,13,4,17,0.00
2012-8-11,94.9,68.0,50.8,53.1,48.8,44.4,86,58,20,29.75,29.62,14,3,16,0.00
2012-8-12,88.6,65.3,50.0,52.0,48.0,44.1,90,61,22,29.79,29.69,10,4,14,0.00
2012-8-13,92.7,68.6,52.2,52.9,47.3,35.3,84,54,14,29.78,29.66,11,4,15,0.00
2012-8-14,84.5,65.1,53.8,53.3,49.2,38.5,84,60,24,29.74,29.67,11,4,17,0.00
2012-8-15,80.4,63.7,55.7,54.9,51.7,46.5,88,68,34,29.81,29.71,12,5,18,0.00
2012-8-16,85.5,64.2,54.0,53.9,50.8,45.7,87,66,26,29.87,29.77,13,4,17,0.00
2012-8-17,82.9,64.5,53.7,55.5,51.6,49.3,92,68,34,29.92,29.81,14,4,18,0.00
2012-8-18,87.7,68.7,56.3,53.9,51.0,47.0,81,58,26,29.86,29.77,17,4,22,0.00
2012-8-19,82.6,62.6,49.7,53.1,49.5,46.2,93,67,31,29.89,29.78,13,4,16,0.00
2012-8-20,87.6,63.3,51.1,53.2,49.7,46.0,93,67,27,29.85,29.74,13,4,19,0.00
2012-8-21,85.7,64.8,52.6,53.3,50.6,48.7,90,65,29,29.83,29.71,14,4,17,0.00
2012-8-22,82.3,61.0,49.4,54.9,50.4,46.6,92,72,34,29.83,29.74,12,4,15,0.00
2012-8-23,79.9,60.9,51.2,55.2,51.2,48.4,93,74,41,29.87,29.74,12,4,16,0.00
2012-8-24,80.9,59.8,47.3,54.3,49.6,44.3,93,73,38,29.82,29.72,14,4,17,0.00
2012-8-25,73.3,57.7,50.7,51.9,49.4,47.9,91,76,44,29.80,29.68,14,4,17,0.00
2012-8-26,76.9,62.0,53.7,52.6,49.6,46.6,87,67,35,29.87,29.74,11,4,16,0.00
2012-8-27,88.8,66.7,49.0,55.2,50.6,45.3,89,61,30,29.96,29.81,10,3,16,0.00
2012-8-28,92.9,70.7,52.2,54.7,47.9,39.0,90,52,18,29.92,29.81,12,3,15,0.00
2012-8-29,95.7,71.8,49.9,50.9,44.2,27.7,84,45,10,29.83,29.67,10,2,14,0.00
2012-8-30,85.0,63.8,50.2,50.7,46.7,42.3,85,58,25,29.72,29.63,18,4,18,0.00
2012-8-31,72.1,59.2,50.9,51.9,50.3,46.3,85,74,48,29.83,29.72,13,4,17,0.00
2012-9-1,81.1,60.9,49.0,53.9,49.9,45.1,88,70,37,29.95,29.84,11,3,15,0.00
2012-9-2,91.2,66.1,45.3,53.2,45.5,27.9,91,57,11,29.91,29.78,9,3,14,0.00
2012-9-3,93.0,68.2,48.2,51.8,44.9,27.9,86,52,10,29.88,29.78,12,3,14,0.00
2012-9-4,83.4,61.4,49.7,51.8,48.8,45.5,92,69,28,29.93,29.82,12,4,17,0.00
2012-9-5,73.3,59.0,51.9,54.0,50.4,47.2,94,76,45,29.90,29.80,11,3,17,0.00
2012-9-6,76.9,59.1,50.5,51.6,48.1,43.6,92,71,33,29.93,29.83,12,4,17,0.00
2012-9-7,82.9,61.7,50.8,49.8,46.4,38.7,87,63,22,30.02,29.89,10,3,15,0.00
2012-9-8,80.4,62.1,49.3,52.0,48.2,44.6,88,64,33,29.98,29.82,13,4,17,0.00
2012-9-9,86.9,62.6,42.8,49.2,45.6,40.1,93,60,21,29.91,29.76,12,3,15,0.00
2012-9-10,90.0,65.3,46.8,51.6,46.7,37.6,90,58,16,29.84,29.69,12,3,15,0.00
2012-9-11,83.3,63.2,49.1,52.9,49.5,44.8,86,64,33,29.85,29.72,11,3,18,0.00
2012-9-12,81.3,62.1,51.7,53.2,50.4,47.6,92,70,32,29.99,29.85,9,3,14,0.00
2012-9-13,87.9,63.2,49.3,52.1,49.0,45.9,89,65,25,30.01,29.88,11,3,15,0.00
2012-9-14,80.0,62.1,53.3,54.4,50.8,47.8,91,70,38,30.01,29.88,11,4,15,0.00
2012-9-15,83.0,62.2,52.2,53.2,48.6,41.0,92,67,26,30.02,29.87,9,3,14,0.00
2012-9-16,81.1,58.6,48.8,51.9,46.7,35.1,94,71,21,29.97,29.83,11,3,14,0.00
2012-9-17,74.4,57.3,50.2,49.9,47.5,46.0,90,73,38,29.98,29.87,13,4,17,0.00
2012-9-18,80.6,58.3,50.2,50.6,47.7,44.6,90,72,29,30.03,29.91,11,3,14,0.00
2012-9-19,80.0,58.8,49.4,51.6,48.2,43.9,93,72,28,30.02,29.92,12,3,16,0.00
2012-9-20,82.4,60.7,44.2,50.6,45.4,41.4,93,63,27,29.99,29.86,10,3,13,0.00
2012-9-21,87.8,63.5,44.2,48.4,44.0,38.0,90,56,19,29.90,29.77,10,2,13,0.00
2012-9-22,89.3,65.1,44.2,48.5,43.6,34.4,89,53,15,29.85,29.74,9,2,14,0.00
2012-9-23,87.2,62.2,49.1,49.0,44.3,31.5,87,58,16,29.88,29.79,15,3,18,0.00
2012-9-24,82.6,60.6,49.4,53.1,49.6,47.2,93,72,34,29.88,29.76,13,3,15,0.00
2012-9-25,77.3,59.3,46.7,52.7,48.2,43.9,91,70,41,29.83,29.73,13,3,17,0.00
2012-9-26,81.0,59.9,49.3,53.4,50.0,47.1,93,73,38,29.81,29.71,9,3,11,0.00
2012-9-27,92.8,63.4,47.7,54.7,48.9,45.6,94,66,23,29.84,29.71,10,3,11,0.00
2012-9-28,71.7,57.2,48.9,52.6,49.8,46.7,93,78,50,29.88,29.78,12,4,15,0.00
2012-9-29,83.4,62.2,52.0,54.8,50.3,46.3,94,70,30,29.94,29.85,9,3,15,0.00
2012-9-30,98.0,67.7,45.1,50.3,42.4,21.2,92,52,7,29.97,29.85,8,2,11,0.00
2012-10-1,103.2,73.4,51.1,45.2,37.3,15.0,74,37,5,29.89,29.77,8,2,13,0.00
2012-10-2,104.3,74.8,52.9,46.3,39.1,26.9,69,35,7,29.79,29.66,10,2,15,0.00
2012-10-3,90.7,67.7,54.4,54.5,46.1,37.0,84,52,17,29.90,29.71,13,4,17,0.00
2012-10-4,70.7,61.1,55.5,54.2,52.4,50.2,84,74,52,30.02,29.90,11,4,18,0.00
2012-10-5,74.5,60.4,49.1,54.2,50.4,46.6,93,72,43,30.05,29.95,14,3,20,0.00
2012-10-6,75.3,58.7,46.8,52.5,48.8,44.4,92,73,40,29.98,29.85,11,3,16,0.00
2012-10-7,77.8,59.8,51.0,53.9,49.4,45.9,91,72,36,29.93,29.81,10,3,14,0.00
2012-10-8,73.3,57.4,44.8,51.2,47.3,42.0,92,72,42,29.95,29.87,12,3,17,0.00
2012-10-9,74.7,59.0,48.5,52.4,47.5,44.8,92,69,37,29.95,29.83,10,2,14,0.00
2012-10-10,78.5,58.4,45.7,52.9,47.1,41.8,93,70,30,29.89,29.75,12,3,17,0.00
2012-10-11,59.4,55.8,53.2,51.2,49.9,48.8,88,81,72,29.86,29.77,10,3,14,0.00
2012-10-12,64.3,57.9,50.4,51.2,49.1,46.4,87,73,56,30.14,29.85,8,3,9,0.00
2012-10-13,80.1,61.4,46.7,56.0,50.5,44.5,92,71,40,30.23,30.06,11,2,12,0.00
2012-10-14,81.3,62.6,53.8,59.1,54.5,50.7,94,78,43,30.12,29.95,10,3,15,0.00
2012-10-15,89.6,67.9,51.7,59.4,53.8,47.3,95,67,25,30.00,29.83,12,2,14,0.00
2012-10-16,90.7,74.9,64.7,63.9,57.8,49.8,83,58,31,29.88,29.73,16,3,21,0.00
2012-10-17,96.9,71.4,56.3,50.2,41.3,24.5,71,41,8,29.81,29.69,10,2,13,0.00
2012-10-18,91.6,66.6,48.2,57.4,43.4,33.1,83,49,13,29.93,29.78,17,3,20,0.00
2012-10-19,69.0,62.4,60.9,57.3,56.3,55.1,85,81,64,29.95,29.90,3,1,5,0.00
2012-10-25,74.5,63.2,50.7,55.4,43.4,35.4,84,51,29,30.17,30.11,12,2,16,0.00
2012-10-26,80.8,62.1,46.4,53.1,45.5,37.2,88,60,24,30.15,29.99,7,2,11,0.00
2012-10-27,89.5,68.9,52.9,56.7,52.9,49.5,89,61,28,29.99,29.82,9,2,12,0.00
2012-10-28,84.4,65.5,52.8,58.4,53.5,49.6,92,69,34,29.90,29.82,10,2,14,0.00
2012-10-29,81.7,60.3,46.1,56.4,50.4,44.5,95,74,31,30.01,29.89,7,2,9,0.00
2012-10-30,71.3,56.3,47.3,56.8,51.6,45.8,95,86,59,29.98,29.84,9,3,11,0.00
2012-10-31,61.6,57.8,55.5,56.9,55.4,53.5,95,92,78,29.89,29.84,8,2,13,0.92
2012-11-1,75.3,60.6,48.6,62.2,53.8,45.8,95,80,49,29.95,29.87,10,2,11,0.05
2012-11-2,70.8,54.3,43.9,54.7,47.0,42.3,95,79,46,29.99,29.91,7,2,8,0.00
2012-11-3,80.0,61.3,49.3,54.6,49.8,46.4,92,70,37,30.04,29.95,7,2,9,0.00
2012-11-4,84.8,64.3,49.6,58.0,52.8,47.4,94,71,33,30.10,30.00,5,1,8,0.00
2012-11-5,85.2,64.6,50.8,56.9,53.8,48.9,95,72,36,30.05,29.92,7,2,8,0.00
2012-11-6,86.0,63.1,48.5,58.0,51.6,46.8,95,71,31,29.98,29.87,6,1,8,0.00
2012-11-7,59.8,54.2,47.1,54.2,51.2,45.2,95,90,80,29.95,29.79,8,2,11,0.00
2012-11-8,58.8,48.3,38.5,47.5,39.7,34.1,93,73,45,29.83,29.77,15,3,26,0.01
2012-11-9,60.7,44.9,35.3,44.9,36.4,32.4,95,75,36,29.91,29.80,13,2,19,0.00
2012-11-10,63.0,45.3,32.6,41.0,33.5,27.8,95,69,27,30.18,29.91,14,3,20,0.00
2012-11-11,61.4,45.7,33.4,40.5,35.7,31.3,94,71,40,30.30,30.18,8,1,10,0.00
2012-11-12,68.3,51.2,38.9,42.8,36.7,29.8,91,63,26,30.29,30.16,5,2,8,0.00
2012-11-13,70.9,53.3,41.4,44.7,41.1,37.5,89,67,33,30.18,29.98,5,1,6,0.00
2012-11-14,75.9,54.6,42.2,52.2,45.8,40.0,93,75,41,30.04,29.90,8,2,11,0.00
2012-11-15,70.1,54.4,40.9,51.0,44.8,37.8,95,73,31,29.93,29.83,9,2,14,0.00
2012-11-16,61.3,55.5,50.1,54.3,51.3,45.4,94,86,72,29.89,29.73,7,2,10,0.85
2012-11-17,63.8,57.0,47.9,58.5,54.0,46.3,95,90,63,29.92,29.68,14,4,20,1.17
2012-11-18,60.3,50.5,40.0,51.4,45.9,39.0,97,85,58,30.07,29.92,5,1,8,0.01
2012-11-19,62.6,57.4,51.9,54.2,50.7,47.5,91,79,61,30.12,30.01,13,3,17,0.10
2012-11-20,60.5,58.7,56.6,58.5,56.8,54.0,94,93,91,30.01,29.86,20,6,23,1.01
2012-11-21,66.3,56.0,45.2,60.4,49.3,39.7,96,80,42,30.12,29.92,12,2,16,0.03
2012-11-22,70.7,52.8,41.9,47.2,43.0,39.4,92,73,37,30.16,30.06,6,2,10,0.00
2012-11-23,76.0,54.1,41.6,48.7,44.0,39.4,94,74,29,30.18,30.06,5,1,8,0.00
2012-11-24,76.1,53.6,39.0,50.8,44.1,37.4,96,75,31,30.10,29.93,8,1,9,0.00
2012-11-25,70.6,52.5,40.3,53.1,45.5,38.7,96,80,47,29.95,29.82,5,1,8,0.00
2012-11-26,67.1,51.8,40.1,51.2,46.5,38.8,96,84,54,29.98,29.89,7,2,9,0.00
2012-11-27,61.6,56.6,51.0,52.1,49.0,47.4,93,77,61,30.01,29.85,11,3,15,0.00
2012-11-28,62.1,56.8,52.7,55.8,51.1,46.2,94,82,62,29.92,29.69,16,4,27,1.22
2012-11-29,60.9,58.6,52.9,58.6,54.8,50.3,93,87,69,29.92,29.66,27,9,46,1.78
2012-11-30,60.6,58.7,56.0,58.6,56.6,54.3,94,93,87,29.86,29.64,16,6,32,1.65
2012-12-1,62.4,58.8,56.8,60.2,56.9,55.0,95,93,87,29.90,29.67,18,7,32,1.14
2012-12-2,62.8,54.6,43.1,59.5,49.1,41.2,95,83,50,30.02,29.54,34,6,46,1.51
2012-12-3,62.2,51.0,40.3,49.4,45.2,39.1,96,82,55,30.12,30.01,7,2,8,0.00
2012-12-4,57.0,54.6,52.3,53.7,51.5,48.5,95,90,84,30.13,30.02,5,1,8,0.77
2012-12-5,62.2,58.2,54.7,60.2,56.5,53.3,96,94,88,30.06,29.99,6,2,7,0.32
2012-12-6,63.4,54.0,43.2,56.5,47.6,41.3,95,80,56,30.07,29.98,12,3,15,0.00
2012-12-7,66.6,49.0,39.4,46.1,41.9,37.7,96,80,41,30.12,29.97,6,2,8,0.02
2012-12-8,65.3,47.7,35.6,44.5,39.9,34.3,96,77,43,30.05,29.94,8,2,12,0.00
2012-12-9,72.3,55.9,43.4,45.6,41.9,37.3,87,62,35,30.10,30.01,9,3,12,0.00
2012-12-10,71.0,52.7,40.4,50.2,44.7,38.8,95,77,41,30.14,29.99,5,2,9,0.00
2012-12-11,56.4,47.4,37.3,48.6,43.6,36.0,96,87,72,30.00,29.74,10,3,13,0.02
2012-12-12,58.5,45.9,35.7,49.1,39.0,33.3,97,79,43,29.80,29.71,9,2,12,0.02
2012-12-13,58.9,42.4,33.8,39.8,35.1,30.7,95,78,37,29.84,29.75,10,2,11,0.00
2012-12-14,58.3,42.0,33.6,44.2,36.8,31.8,95,84,46,29.96,29.75,10,2,13,0.03
2012-12-15,45.9,40.5,33.3,43.7,39.0,32.1,97,94,92,30.01,29.91,8,2,10,0.07
2012-12-16,53.9,48.1,44.3,52.8,46.9,42.4,96,95,93,30.02,29.88,11,2,14,0.56
2012-12-17,59.9,52.3,44.1,54.5,46.4,32.5,96,81,54,29.95,29.86,15,4,21,0.13
2012-12-18,53.0,44.0,34.1,35.0,30.2,24.9,86,59,34,30.13,29.95,17,5,27,0.00
2012-12-19,53.8,39.7,28.9,32.7,28.0,24.1,92,66,32,30.25,30.12,10,2,10,0.00
2012-12-20,54.7,46.9,35.2,48.0,38.7,30.2,92,74,54,30.12,29.83,19,6,26,0.53
2012-12-21,54.2,51.6,49.1,52.7,49.3,47.2,95,92,86,29.83,29.72,17,6,22,2.56
2012-12-22,55.8,49.4,44.5,50.6,44.6,41.4,94,84,60,29.95,29.69,18,4,41,0.68
2012-12-23,61.8,50.7,40.1,58.3,48.2,38.8,95,91,70,29.98,29.71,22,5,39,1.95
2012-12-24,61.8,45.4,36.7,49.2,40.7,35.7,97,85,52,30.14,29.98,7,2,8,0.01
2012-12-25,45.9,43.8,40.5,44.3,42.3,38.7,96,94,91,30.06,29.66,14,2,24,0.85
2012-12-26,56.6,47.3,39.8,52.1,41.2,38.7,97,81,55,30.02,29.77,19,4,26,0.04
2012-12-27,62.4,47.7,38.6,40.0,36.9,31.1,91,69,35,30.09,30.01,11,3,17,0.00
2012-12-28,50.7,42.7,34.4,42.3,38.1,32.8,95,84,59,30.11,29.95,10,2,13,0.07
2012-12-29,61.6,46.4,38.3,42.1,38.4,33.3,94,76,37,29.99,29.91,13,2,16,0.01
2012-12-30,60.1,43.6,34.4,41.1,35.4,31.6,95,76,38,30.10,29.96,8,2,11,0.00
2012-12-31,54.5,41.4,29.5,40.5,34.2,27.8,96,78,39,30.21,30.10,6,2,9,0.00
2013-1-1,62.9,43.2,32.8,36.8,31.3,24.9,94,69,25,30.21,30.11,12,2,15,0.00